Hourly Data Report for September 12, 2017

All times are specified in Local Standard Time (LST). Add 1 hour to adjust for Daylight Saving Time where and when it is observed.

ALGONQUIN PARK EAST GATE
ONTARIO

45°32'00.000" N
78°16'00.000" W
397.00 m
6080192
71581
TNK

Download Data

Hourly Data (September 2017)
Hourly Data Report for September 12, 2017
Temp Definition
°C
Dew Point Temp Definition
°C
Rel Hum Definition
%
Wind Dir Definition
10's deg

Wind Spd Definition
km/h
Visibility Definition
km
Stn Press Definition
kPa
Hmdx Definition


Wind Chill Definition


Weather Definition


TIME
00:00 6.1 4.6 90 LegendMM LegendMM   97.28     LegendNANA
01:00 5.5 4.2 92 LegendMM LegendMM   97.23     LegendNANA
02:00 5.3 4.2 92 LegendMM LegendMM   97.16     LegendNANA
03:00 4.6 3.5 92 LegendMM LegendMM   97.12     LegendNANA
04:00 4.4 3.3 93 LegendMM LegendMM   97.09     LegendNANA
05:00 4.0 3.0 93 LegendMM LegendMM   97.07     LegendNANA
06:00 3.5 2.6 93 LegendMM LegendMM   97.07     LegendNANA
07:00 5.4 4.4 93 LegendMM LegendMM   97.05     LegendNANA
08:00 10.6 9.0 90 LegendMM LegendMM   97.02     LegendNANA
09:00 16.4 12.7 79 LegendMM LegendMM   96.97     LegendNANA
10:00 19.3 11.8 62 LegendMM LegendMM   96.92     LegendNANA
11:00 21.1 11.5 54 LegendMM LegendMM   96.89     LegendNANA
12:00 22.0 10.2 47 LegendMM LegendMM   96.84     LegendNANA
13:00 22.6 10.5 47 LegendMM LegendMM   96.74     LegendNANA
14:00 23.4 11.9 48 LegendMM LegendMM   96.68 26   LegendNANA
15:00 23.4 12.4 50 LegendMM LegendMM   96.64 26   LegendNANA
16:00 22.9 12.7 53 LegendMM LegendMM   96.60 26   LegendNANA
17:00 21.8 13.4 59 LegendMM LegendMM   96.59 25   LegendNANA
18:00 19.0 14.7 76 LegendMM LegendMM   96.59     LegendNANA
19:00 15.9 13.0 83 LegendMM LegendMM   96.62     LegendNANA
20:00 14.4 12.5 89 LegendMM LegendMM   96.65     LegendNANA
21:00 12.8 10.9 89 LegendMM LegendMM   96.62     LegendNANA
22:00 11.7 10.2 90 LegendMM LegendMM   96.62     LegendNANA
23:00 10.3 8.8 91 LegendMM LegendMM   96.60     LegendNANA

Notes on Data Quality.

Legend

  • E = Estimated
  • M = Missing
  • NA = Not Available
  • ‡ = Partner data that is not subject to review by the National Climate Archives
Date modified: